Location: Hermaringen
(48.5952°N, 10.2585°E)
Time: 08:34:20
(UTC+00:00)

Vanguard 3 - Pass Details

Date: 18 February 2026
Orbit: 507 x 3205 km, 33.4° (Epoch: 6 March)

Event Time Altitude Azimuth Distance (km) Brightness Sun altitude
Rises 18:00:54 0° 250° (WSW) 4,308 12.4 -13.2°
Reaches altitude 10° 18:05:30 10° 231° (SW) 2,806 10.7 -13.9°
Maximum altitude 18:09:14 16° 196° (SSW) 2,008 9.4 -14.5°
Drops below altitude 10° 18:12:11 10° 157° (SSE) 2,118 9.1 -15.0°
Enters shadow 18:13:11 - 147° (SSE) 2,317 9.2 -15.2°
